Orbital Elements at Epoch 2459200.5 (2020-Dec-17.0) TDB
Reference: JPL 18 (heliocentric ecliptic J2000)
Element | Value | Uncertainty (1-sigma) | Units |
e | .1803559057581584 | 3.5721e-08 | |
a | 2.479646259553015 | 1.0113e-08 | au |
q | 2.032427412451502 | 9.1273e-08 | au |
i | 4.377023401105888 | 3.8949e-06 | deg |
node | 147.7294027617845 | 6.9823e-05 | deg |
peri | 123.9703487127464 | 7.1652e-05 | deg |
M | 22.4864680262446 | 1.6117e-05 | deg |
tp | 2459111.415578001894 (2020-Sep-18.91557800) | 6.3798e-05 | TDB |
period | 1426.208503793837 3.90 | 8.7249e-06 2.389e-08 | d yr |
n | .2524175105129223 | 1.5442e-09 | deg/d |
Q | 2.926865106654528 | 1.1937e-08 | au |
|
| | Orbit Determination Parameters
Additional Information
|